contact:dominique.lefevre@mio.osupytheas.fr, maurice.libes@osupytheas.fr, didier.mallarino@osupytheas.fr
Project:EMSO http://www.emso-fr.org/EMSO-France
Depth: 2436.0 m
Title:EMSO Ligure Ouest : Data MII capteur CSTAR
DateTime,Latitude,Longitude,Instrument_Serial,Reference_Counts,Signal_Counts,Corrected_Signal_raw_counts,Calculated_Beam_c_inverse_meters,Internal_thermistor_counts
DateTime,Latitude,Longitude,Instrument_Serial,Reference_Counts,Signal_Counts,Corrected_Signal_raw_counts,Calculated_Beam_c_inverse_meters,Internal_thermistor_counts
2021-05-10T00:02:34,42.805,6.029,CST-1368DR,5470,7633,14981,0.166,551
2021-05-10T00:05:36,42.805,6.029,CST-1368DR,5470,7633,14981,0.166,551
2021-05-10T00:08:37,42.805,6.029,CST-1368DR,5470,7634,14982,0.166,551
2021-05-10T00:11:39,42.805,6.029,CST-1368DR,5470,7634,14982,0.166,551
2021-05-10T00:14:40,42.805,6.029,CST-1368DR,5470,7633,14981,0.166,551
2021-05-10T00:17:42,42.805,6.029,CST-1368DR,5470,7633,14981,0.166,550
2021-05-10T00:20:43,42.805,6.029,CST-1368DR,5470,7633,14980,0.166,551
2021-05-10T00:23:45,42.805,6.029,CST-1368DR,5470,7634,14982,0.166,551
2021-05-10T00:26:47,42.805,6.029,CST-1368DR,5470,7634,14982,0.166,551
2021-05-10T00:29:48,42.805,6.029,CST-1368DR,5470,7634,14983,0.166,551
2021-05-10T00:32:50,42.805,6.029,CST-1368DR,5470,7633,14980,0.166,551
2021-05-10T00:35:51,42.805,6.029,CST-1368DR,5470,7634,14982,0.166,551
2021-05-10T00:38:53,42.805,6.029,CST-1368DR,5470,7634,14982,0.166,551
2021-05-10T00:41:55,42.805,6.029,CST-1368DR,5470,7634,14982,0.166,551
2021-05-10T00:44:56,42.805,6.029,CST-1368DR,5470,7633,14981,0.166,551
2021-05-10T00:47:58,42.805,6.029,CST-1368DR,5470,7632,14979,0.167,551
2021-05-10T00:50:59,42.805,6.029,CST-1368DR,5470,7633,14981,0.166,551
2021-05-10T00:54:01,42.805,6.029,CST-1368DR,5470,7633,14981,0.166,551
2021-05-10T00:57:02,42.805,6.029,CST-1368DR,5470,7632,14979,0.167,551
2021-05-10T01:00:04,42.805,6.029,CST-1368DR,5470,7633,14981,0.166,551
2021-05-10T01:03:06,42.805,6.029,CST-1368DR,5470,7634,14983,0.166,551
2021-05-10T01:06:07,42.805,6.029,CST-1368DR,5470,7634,14982,0.166,551
2021-05-10T01:09:09,42.805,6.029,CST-1368DR,5470,7634,14982,0.166,551
2021-05-10T01:12:10,42.805,6.029,CST-1368DR,5470,7634,14982,0.166,551
2021-05-10T01:15:12,42.805,6.029,CST-1368DR,5470,7634,14982,0.166,551
2021-05-10T01:18:14,42.805,6.029,CST-1368DR,5470,7634,14982,0.166,551
2021-05-10T01:21:15,42.805,6.029,CST-1368DR,5470,7634,14982,0.166,551
2021-05-10T01:24:17,42.805,6.029,CST-1368DR,5470,7633,14981,0.166,551
2021-05-10T01:27:18,42.805,6.029,CST-1368DR,5470,7634,14982,0.166,551
2021-05-10T01:30:20,42.805,6.029,CST-1368DR,5470,7633,14980,0.166,551
2021-05-10T01:33:21,42.805,6.029,CST-1368DR,5470,7632,14979,0.167,551
2021-05-10T01:36:23,42.805,6.029,CST-1368DR,5470,7633,14980,0.166,551
2021-05-10T01:39:25,42.805,6.029,CST-1368DR,5470,7633,14981,0.166,551
2021-05-10T01:42:26,42.805,6.029,CST-1368DR,5470,7633,14981,0.166,551
2021-05-10T01:45:28,42.805,6.029,CST-1368DR,5470,7634,14983,0.166,551
2021-05-10T01:48:29,42.805,6.029,CST-1368DR,5470,7634,14983,0.166,551
2021-05-10T01:51:31,42.805,6.029,CST-1368DR,5470,7634,14982,0.166,551
2021-05-10T01:54:32,42.805,6.029,CST-1368DR,5470,7633,14981,0.166,550
2021-05-10T01:57:34,42.805,6.029,CST-1368DR,5470,7635,14983,0.166,551
2021-05-10T02:00:36,42.805,6.029,CST-1368DR,5470,7634,14983,0.166,551
2021-05-10T02:03:37,42.805,6.029,CST-1368DR,5470,7635,14984,0.165,551
2021-05-10T02:06:39,42.805,6.029,CST-1368DR,5469,7634,14985,0.165,551
2021-05-10T02:09:40,42.805,6.029,CST-1368DR,5470,7634,14982,0.166,551
2021-05-10T02:12:42,42.805,6.029,CST-1368DR,5470,7633,14981,0.166,551
2021-05-10T02:15:44,42.805,6.029,CST-1368DR,5469,7633,14983,0.166,551
2021-05-10T02:18:45,42.805,6.029,CST-1368DR,5470,7634,14982,0.166,551
2021-05-10T02:21:47,42.805,6.029,CST-1368DR,5470,7633,14981,0.166,551
2021-05-10T02:24:48,42.805,6.029,CST-1368DR,5470,7634,14982,0.166,551
2021-05-10T02:27:50,42.805,6.029,CST-1368DR,5470,7634,14982,0.166,551
2021-05-10T02:30:51,42.805,6.029,CST-1368DR,5470,7633,14980,0.166,551
2021-05-10T02:33:53,42.805,6.029,CST-1368DR,5469,7634,14985,0.165,551
2021-05-10T02:36:55,42.805,6.029,CST-1368DR,5469,7633,14983,0.166,551
2021-05-10T02:39:56,42.805,6.029,CST-1368DR,5469,7633,14982,0.166,551
2021-05-10T02:42:58,42.805,6.029,CST-1368DR,5469,7633,14983,0.166,551
2021-05-10T02:45:59,42.805,6.029,CST-1368DR,5469,7633,14983,0.166,551
2021-05-10T02:49:01,42.805,6.029,CST-1368DR,5469,7633,14984,0.165,551
2021-05-10T02:52:02,42.805,6.029,CST-1368DR,5469,7633,14984,0.165,551
2021-05-10T02:55:04,42.805,6.029,CST-1368DR,5469,7634,14985,0.165,551
2021-05-10T02:58:06,42.805,6.029,CST-1368DR,5469,7634,14986,0.165,551
2021-05-10T03:01:07,42.805,6.029,CST-1368DR,5469,7633,14984,0.165,551
2021-05-10T03:04:09,42.805,6.029,CST-1368DR,5469,7634,14985,0.165,551
2021-05-10T03:07:10,42.805,6.029,CST-1368DR,5469,7633,14983,0.166,551
2021-05-10T03:10:12,42.805,6.029,CST-1368DR,5469,7632,14981,0.166,551
2021-05-10T03:13:14,42.805,6.029,CST-1368DR,5469,7633,14984,0.165,551
2021-05-10T03:16:15,42.805,6.029,CST-1368DR,5469,7633,14983,0.166,551
2021-05-10T03:19:17,42.805,6.029,CST-1368DR,5469,7634,14985,0.165,551
2021-05-10T03:22:18,42.805,6.029,CST-1368DR,5469,7634,14986,0.165,551
2021-05-10T03:25:20,42.805,6.029,CST-1368DR,5469,7634,14985,0.165,551
2021-05-10T03:28:21,42.805,6.029,CST-1368DR,5469,7634,14985,0.165,551
2021-05-10T03:31:23,42.805,6.029,CST-1368DR,5469,7633,14984,0.165,551
2021-05-10T03:34:25,42.805,6.029,CST-1368DR,5469,7634,14985,0.165,551
2021-05-10T03:37:26,42.805,6.029,CST-1368DR,5469,7633,14984,0.165,551
2021-05-10T03:40:28,42.805,6.029,CST-1368DR,5469,7634,14985,0.165,551
2021-05-10T03:43:29,42.805,6.029,CST-1368DR,5469,7634,14985,0.165,551
2021-05-10T03:46:31,42.805,6.029,CST-1368DR,5469,7634,14985,0.165,551
2021-05-10T03:49:33,42.805,6.029,CST-1368DR,5469,7634,14985,0.165,551
2021-05-10T03:52:34,42.805,6.029,CST-1368DR,5469,7633,14984,0.165,551
2021-05-10T03:55:36,42.805,6.029,CST-1368DR,5469,7632,14981,0.166,551
2021-05-10T03:58:37,42.805,6.029,CST-1368DR,5469,7634,14985,0.165,551
2021-05-10T04:01:39,42.805,6.029,CST-1368DR,5469,7634,14985,0.165,551
2021-05-10T04:04:40,42.805,6.029,CST-1368DR,5469,7633,14984,0.165,551
2021-05-10T04:07:42,42.805,6.029,CST-1368DR,5469,7634,14985,0.165,551
2021-05-10T04:10:44,42.805,6.029,CST-1368DR,5469,7632,14982,0.166,551
2021-05-10T04:13:45,42.805,6.029,CST-1368DR,5469,7633,14983,0.166,551
2021-05-10T04:16:47,42.805,6.029,CST-1368DR,5469,7634,14985,0.165,551
2021-05-10T04:19:48,42.805,6.029,CST-1368DR,5469,7633,14983,0.166,551
2021-05-10T04:22:50,42.805,6.029,CST-1368DR,5469,7633,14984,0.165,551
2021-05-10T04:25:51,42.805,6.029,CST-1368DR,5469,7632,14981,0.166,551
2021-05-10T04:28:53,42.805,6.029,CST-1368DR,5469,7632,14980,0.166,551
2021-05-10T04:31:55,42.805,6.029,CST-1368DR,5469,7633,14983,0.166,551
2021-05-10T04:34:56,42.805,6.029,CST-1368DR,5469,7633,14984,0.165,551
2021-05-10T04:37:58,42.805,6.029,CST-1368DR,5469,7633,14982,0.166,551
2021-05-10T04:40:59,42.805,6.029,CST-1368DR,5469,7632,14981,0.166,551
2021-05-10T04:44:01,42.805,6.029,CST-1368DR,5469,7633,14983,0.166,551
2021-05-10T04:47:02,42.805,6.029,CST-1368DR,5469,7633,14983,0.166,551
2021-05-10T04:50:04,42.805,6.029,CST-1368DR,5469,7633,14982,0.166,551
2021-05-10T04:53:06,42.805,6.029,CST-1368DR,5469,7633,14984,0.165,551
2021-05-10T04:56:07,42.805,6.029,CST-1368DR,5469,7633,14983,0.166,551
2021-05-10T04:59:09,42.805,6.029,CST-1368DR,5469,7634,14985,0.165,551
2021-05-10T05:02:10,42.805,6.029,CST-1368DR,5469,7633,14982,0.166,551
2021-05-10T05:05:12,42.805,6.029,CST-1368DR,5469,7631,14979,0.167,551
2021-05-10T05:08:14,42.805,6.029,CST-1368DR,5469,7633,14983,0.166,551
2021-05-10T05:11:15,42.805,6.029,CST-1368DR,5469,7632,14981,0.166,551
2021-05-10T05:14:17,42.805,6.029,CST-1368DR,5469,7633,14983,0.166,551
2021-05-10T05:17:18,42.805,6.029,CST-1368DR,5469,7633,14983,0.166,550
2021-05-10T05:20:20,42.805,6.029,CST-1368DR,5469,7632,14982,0.166,551
2021-05-10T05:23:21,42.805,6.029,CST-1368DR,5469,7633,14984,0.165,551
2021-05-10T05:26:23,42.805,6.029,CST-1368DR,5469,7634,14985,0.165,551
2021-05-10T05:29:25,42.805,6.029,CST-1368DR,5469,7634,14985,0.165,551
2021-05-10T05:32:26,42.805,6.029,CST-1368DR,5469,7632,14980,0.166,551
2021-05-10T05:35:28,42.805,6.029,CST-1368DR,5469,7631,14980,0.166,551
2021-05-10T05:38:29,42.805,6.029,CST-1368DR,5469,7633,14984,0.165,551
2021-05-10T05:41:31,42.805,6.029,CST-1368DR,5469,7633,14983,0.166,551
2021-05-10T05:44:33,42.805,6.029,CST-1368DR,5469,7633,14984,0.165,551
2021-05-10T05:47:34,42.805,6.029,CST-1368DR,5469,7633,14983,0.166,551
2021-05-10T05:50:36,42.805,6.029,CST-1368DR,5469,7634,14986,0.165,551
2021-05-10T05:53:37,42.805,6.029,CST-1368DR,5469,7634,14985,0.165,551
2021-05-10T05:56:39,42.805,6.029,CST-1368DR,5469,7634,14985,0.165,551
2021-05-10T05:59:40,42.805,6.029,CST-1368DR,5469,7633,14984,0.165,551
2021-05-10T06:02:42,42.805,6.029,CST-1368DR,5469,7633,14984,0.165,551
2021-05-10T06:05:44,42.805,6.029,CST-1368DR,5469,7633,14984,0.165,551
2021-05-10T06:08:45,42.805,6.029,CST-1368DR,5469,7633,14983,0.166,551
2021-05-10T06:11:47,42.805,6.029,CST-1368DR,5469,7633,14983,0.166,551
2021-05-10T06:14:48,42.805,6.029,CST-1368DR,5469,7633,14983,0.166,551
2021-05-10T06:17:50,42.805,6.029,CST-1368DR,5469,7634,14985,0.165,551
2021-05-10T06:20:51,42.805,6.029,CST-1368DR,5469,7634,14985,0.165,551
2021-05-10T06:23:53,42.805,6.029,CST-1368DR,5469,7634,14986,0.165,551
2021-05-10T06:26:55,42.805,6.029,CST-1368DR,5469,7634,14986,0.165,551
2021-05-10T06:29:56,42.805,6.029,CST-1368DR,5469,7634,14985,0.165,551
2021-05-10T06:32:58,42.805,6.029,CST-1368DR,5469,7632,14982,0.166,551
2021-05-10T06:35:59,42.805,6.029,CST-1368DR,5469,7634,14985,0.165,551
2021-05-10T06:39:01,42.805,6.029,CST-1368DR,5469,7633,14984,0.165,551
2021-05-10T06:42:03,42.805,6.029,CST-1368DR,5469,7633,14983,0.166,551
2021-05-10T06:45:04,42.805,6.029,CST-1368DR,5469,7633,14982,0.166,551
2021-05-10T06:48:06,42.805,6.029,CST-1368DR,5469,7633,14982,0.166,551
2021-05-10T06:51:07,42.805,6.029,CST-1368DR,5469,7633,14984,0.165,551
2021-05-10T06:54:09,42.805,6.029,CST-1368DR,5469,7634,14985,0.165,551
2021-05-10T06:57:10,42.805,6.029,CST-1368DR,5469,7632,14981,0.166,551
2021-05-10T07:00:12,42.805,6.029,CST-1368DR,5469,7633,14983,0.166,551
2021-05-10T07:03:14,42.805,6.029,CST-1368DR,5469,7634,14985,0.165,551
2021-05-10T07:06:15,42.805,6.029,CST-1368DR,5469,7633,14983,0.166,551
2021-05-10T07:09:17,42.805,6.029,CST-1368DR,5469,7633,14983,0.166,551
2021-05-10T07:12:18,42.805,6.029,CST-1368DR,5469,7633,14982,0.166,551
2021-05-10T07:15:20,42.805,6.029,CST-1368DR,5469,7633,14983,0.166,551
2021-05-10T07:18:21,42.805,6.029,CST-1368DR,5469,7634,14985,0.165,551
2021-05-10T07:21:23,42.805,6.029,CST-1368DR,5469,7633,14982,0.166,551
2021-05-10T07:24:25,42.805,6.029,CST-1368DR,5469,7633,14983,0.166,551
2021-05-10T07:27:26,42.805,6.029,CST-1368DR,5469,7634,14985,0.165,551
2021-05-10T07:30:28,42.805,6.029,CST-1368DR,5469,7633,14984,0.165,551
2021-05-10T07:33:29,42.805,6.029,CST-1368DR,5469,7634,14985,0.165,551
2021-05-10T07:36:31,42.805,6.029,CST-1368DR,5469,7633,14983,0.166,551
2021-05-10T07:39:33,42.805,6.029,CST-1368DR,5469,7633,14984,0.165,551
2021-05-10T07:42:34,42.805,6.029,CST-1368DR,5469,7633,14983,0.166,551
2021-05-10T07:45:36,42.805,6.029,CST-1368DR,5469,7633,14984,0.165,551
2021-05-10T07:48:37,42.805,6.029,CST-1368DR,5469,7633,14984,0.165,551
2021-05-10T07:51:39,42.805,6.029,CST-1368DR,5469,7633,14983,0.166,551
2021-05-10T07:54:40,42.805,6.029,CST-1368DR,5469,7633,14982,0.166,551
2021-05-10T07:57:42,42.805,6.029,CST-1368DR,5469,7633,14983,0.166,551
2021-05-10T08:00:44,42.805,6.029,CST-1368DR,5469,7632,14981,0.166,551
2021-05-10T08:03:45,42.805,6.029,CST-1368DR,5469,7633,14982,0.166,551
2021-05-10T08:06:47,42.805,6.029,CST-1368DR,5469,7633,14982,0.166,551
2021-05-10T08:09:48,42.805,6.029,CST-1368DR,5469,7633,14983,0.166,551
2021-05-10T08:12:50,42.805,6.029,CST-1368DR,5469,7632,14982,0.166,551
2021-05-10T08:15:52,42.805,6.029,CST-1368DR,5469,7632,14980,0.166,551
2021-05-10T08:18:53,42.805,6.029,CST-1368DR,5469,7632,14981,0.166,551
2021-05-10T08:21:55,42.805,6.029,CST-1368DR,5469,7633,14984,0.165,551
2021-05-10T08:24:56,42.805,6.029,CST-1368DR,5469,7633,14982,0.166,551
2021-05-10T08:27:58,42.805,6.029,CST-1368DR,5469,7633,14984,0.165,551
2021-05-10T08:30:59,42.805,6.029,CST-1368DR,5469,7633,14983,0.166,551
2021-05-10T08:34:01,42.805,6.029,CST-1368DR,5469,7633,14982,0.166,551
2021-05-10T08:37:03,42.805,6.029,CST-1368DR,5469,7632,14981,0.166,551
2021-05-10T08:40:04,42.805,6.029,CST-1368DR,5469,7632,14980,0.166,551
2021-05-10T08:43:06,42.805,6.029,CST-1368DR,5469,7632,14980,0.166,551
2021-05-10T08:46:07,42.805,6.029,CST-1368DR,5469,7632,14980,0.166,551
2021-05-10T08:49:09,42.805,6.029,CST-1368DR,5469,7633,14983,0.166,551
2021-05-10T08:52:10,42.805,6.029,CST-1368DR,5469,7632,14981,0.166,551
2021-05-10T08:55:12,42.805,6.029,CST-1368DR,5469,7632,14981,0.166,551
2021-05-10T08:58:14,42.805,6.029,CST-1368DR,5469,7632,14980,0.166,551
2021-05-10T09:01:15,42.805,6.029,CST-1368DR,5469,7631,14980,0.166,551
2021-05-10T09:04:17,42.805,6.029,CST-1368DR,5469,7632,14980,0.166,551
2021-05-10T09:07:18,42.805,6.029,CST-1368DR,5469,7631,14978,0.167,551
2021-05-10T09:10:20,42.805,6.029,CST-1368DR,5469,7632,14980,0.166,551
2021-05-10T09:13:22,42.805,6.029,CST-1368DR,5469,7631,14979,0.167,551
2021-05-10T09:16:23,42.805,6.029,CST-1368DR,5469,7631,14980,0.166,551
2021-05-10T09:19:25,42.805,6.029,CST-1368DR,5469,7631,14979,0.167,551
2021-05-10T09:22:26,42.805,6.029,CST-1368DR,5469,7632,14981,0.166,551
2021-05-10T09:25:28,42.805,6.029,CST-1368DR,5469,7632,14980,0.166,551
2021-05-10T09:28:29,42.805,6.029,CST-1368DR,5469,7631,14979,0.167,551
2021-05-10T09:31:31,42.805,6.029,CST-1368DR,5469,7631,14980,0.166,551
2021-05-10T09:34:33,42.805,6.029,CST-1368DR,5469,7630,14977,0.167,551
2021-05-10T09:37:34,42.805,6.029,CST-1368DR,5469,7632,14980,0.166,551
2021-05-10T09:40:36,42.805,6.029,CST-1368DR,5469,7631,14979,0.167,551
2021-05-10T09:43:37,42.805,6.029,CST-1368DR,5468,7629,14977,0.167,551
2021-05-10T09:46:39,42.805,6.029,CST-1368DR,5468,7631,14981,0.166,551
2021-05-10T09:49:40,42.805,6.029,CST-1368DR,5469,7631,14978,0.167,551
2021-05-10T09:52:42,42.805,6.029,CST-1368DR,5468,7631,14981,0.166,551
2021-05-10T09:55:44,42.805,6.029,CST-1368DR,5468,7631,14982,0.166,551
2021-05-10T09:58:45,42.805,6.029,CST-1368DR,5469,7630,14977,0.167,551
2021-05-10T10:01:47,42.805,6.029,CST-1368DR,5469,7630,14976,0.167,551
2021-05-10T10:04:48,42.805,6.029,CST-1368DR,5469,7631,14979,0.167,551
2021-05-10T10:07:50,42.805,6.029,CST-1368DR,5469,7631,14980,0.166,551
2021-05-10T10:10:52,42.805,6.029,CST-1368DR,5469,7630,14977,0.167,551
2021-05-10T10:13:53,42.805,6.029,CST-1368DR,5469,7632,14980,0.166,551
2021-05-10T10:16:55,42.805,6.029,CST-1368DR,5468,7631,14982,0.166,551
2021-05-10T10:19:56,42.805,6.029,CST-1368DR,5468,7631,14981,0.166,551
2021-05-10T10:22:58,42.805,6.029,CST-1368DR,5469,7631,14978,0.167,551
2021-05-10T10:25:59,42.805,6.029,CST-1368DR,5469,7631,14980,0.166,551
2021-05-10T10:29:01,42.805,6.029,CST-1368DR,5469,7632,14980,0.166,551
2021-05-10T10:32:03,42.805,6.029,CST-1368DR,5469,7631,14980,0.166,551
2021-05-10T10:35:04,42.805,6.029,CST-1368DR,5469,7632,14981,0.166,551
2021-05-10T10:38:06,42.805,6.029,CST-1368DR,5469,7632,14980,0.166,551
2021-05-10T10:41:07,42.805,6.029,CST-1368DR,5469,7631,14979,0.167,551
2021-05-10T10:44:09,42.805,6.029,CST-1368DR,5469,7631,14980,0.166,551
2021-05-10T10:47:11,42.805,6.029,CST-1368DR,5469,7631,14979,0.167,551
2021-05-10T10:50:12,42.805,6.029,CST-1368DR,5469,7632,14981,0.166,551
2021-05-10T10:53:14,42.805,6.029,CST-1368DR,5469,7632,14981,0.166,551
2021-05-10T10:56:15,42.805,6.029,CST-1368DR,5469,7631,14980,0.166,551
2021-05-10T10:59:17,42.805,6.029,CST-1368DR,5469,7631,14980,0.166,551
2021-05-10T11:02:18,42.805,6.029,CST-1368DR,5469,7631,14979,0.167,551
2021-05-10T11:05:20,42.805,6.029,CST-1368DR,5469,7631,14979,0.167,551
2021-05-10T11:08:22,42.805,6.029,CST-1368DR,5468,7631,14982,0.166,551
2021-05-10T11:11:23,42.805,6.029,CST-1368DR,5468,7631,14981,0.166,550
2021-05-10T11:14:25,42.805,6.029,CST-1368DR,5469,7630,14977,0.167,551
2021-05-10T11:17:26,42.805,6.029,CST-1368DR,5469,7631,14978,0.167,551
2021-05-10T11:20:28,42.805,6.029,CST-1368DR,5469,7631,14980,0.166,551
2021-05-10T11:23:30,42.805,6.029,CST-1368DR,5469,7632,14980,0.166,551
2021-05-10T11:26:31,42.805,6.029,CST-1368DR,5469,7632,14980,0.166,551
2021-05-10T11:29:33,42.805,6.029,CST-1368DR,5469,7631,14980,0.166,551
2021-05-10T11:32:34,42.805,6.029,CST-1368DR,5469,7631,14979,0.167,551
2021-05-10T11:35:36,42.805,6.029,CST-1368DR,5468,7631,14982,0.166,551
2021-05-10T11:38:37,42.805,6.029,CST-1368DR,5469,7631,14980,0.166,551
2021-05-10T11:41:39,42.805,6.029,CST-1368DR,5469,7632,14980,0.166,551
2021-05-10T11:44:41,42.805,6.029,CST-1368DR,5468,7631,14981,0.166,551
2021-05-10T11:47:42,42.805,6.029,CST-1368DR,5469,7631,14980,0.166,551
2021-05-10T11:50:44,42.805,6.029,CST-1368DR,5469,7631,14978,0.167,551
2021-05-10T11:53:45,42.805,6.029,CST-1368DR,5468,7631,14982,0.166,551
2021-05-10T11:56:47,42.805,6.029,CST-1368DR,5469,7632,14980,0.166,551
2021-05-10T11:59:48,42.805,6.029,CST-1368DR,5469,7631,14979,0.167,551
2021-05-10T12:02:50,42.805,6.029,CST-1368DR,5469,7632,14981,0.166,551
2021-05-10T12:05:52,42.805,6.029,CST-1368DR,5468,7632,14983,0.166,551
2021-05-10T12:08:53,42.805,6.029,CST-1368DR,5469,7632,14982,0.166,551
2021-05-10T12:11:55,42.805,6.029,CST-1368DR,5469,7632,14980,0.166,551
2021-05-10T12:14:56,42.805,6.029,CST-1368DR,5469,7632,14981,0.166,551
2021-05-10T12:17:58,42.805,6.029,CST-1368DR,5468,7631,14982,0.166,551
2021-05-10T12:21:00,42.805,6.029,CST-1368DR,5468,7632,14984,0.165,551
2021-05-10T12:24:01,42.805,6.029,CST-1368DR,5469,7632,14981,0.166,551
2021-05-10T12:27:03,42.805,6.029,CST-1368DR,5468,7631,14981,0.166,551
2021-05-10T12:30:04,42.805,6.029,CST-1368DR,5469,7631,14979,0.167,551
2021-05-10T12:33:06,42.805,6.029,CST-1368DR,5468,7631,14982,0.166,551
2021-05-10T12:36:07,42.805,6.029,CST-1368DR,5468,7632,14983,0.166,551
2021-05-10T12:39:09,42.805,6.029,CST-1368DR,5468,7632,14983,0.166,551
2021-05-10T12:42:11,42.805,6.029,CST-1368DR,5468,7631,14982,0.166,551
2021-05-10T12:45:12,42.805,6.029,CST-1368DR,5468,7631,14982,0.166,551
2021-05-10T12:48:14,42.805,6.029,CST-1368DR,5468,7632,14984,0.165,551
2021-05-10T12:51:15,42.805,6.029,CST-1368DR,5468,7631,14982,0.166,551
2021-05-10T12:54:17,42.805,6.029,CST-1368DR,5468,7632,14983,0.166,551
2021-05-10T12:57:18,42.805,6.029,CST-1368DR,5468,7631,14982,0.166,551
2021-05-10T13:00:20,42.805,6.029,CST-1368DR,5468,7631,14982,0.166,551
2021-05-10T13:03:22,42.805,6.029,CST-1368DR,5468,7632,14983,0.166,550
2021-05-10T13:06:23,42.805,6.029,CST-1368DR,5468,7632,14983,0.166,551
2021-05-10T13:09:25,42.805,6.029,CST-1368DR,5468,7631,14982,0.166,551
2021-05-10T13:12:26,42.805,6.029,CST-1368DR,5468,7632,14983,0.166,551
2021-05-10T13:15:28,42.805,6.029,CST-1368DR,5468,7632,14984,0.165,551
2021-05-10T13:18:30,42.805,6.029,CST-1368DR,5468,7632,14983,0.166,551
2021-05-10T13:21:31,42.805,6.029,CST-1368DR,5468,7632,14984,0.165,551
2021-05-10T13:24:33,42.805,6.029,CST-1368DR,5468,7631,14982,0.166,551
2021-05-10T13:27:34,42.805,6.029,CST-1368DR,5468,7631,14982,0.166,551
2021-05-10T13:30:36,42.805,6.029,CST-1368DR,5468,7632,14984,0.165,551
2021-05-10T13:33:37,42.805,6.029,CST-1368DR,5468,7632,14984,0.165,551
2021-05-10T13:36:39,42.805,6.029,CST-1368DR,5468,7631,14982,0.166,551
2021-05-10T13:39:41,42.805,6.029,CST-1368DR,5468,7632,14983,0.166,551
2021-05-10T13:42:42,42.805,6.029,CST-1368DR,5468,7632,14983,0.166,551
2021-05-10T13:45:44,42.805,6.029,CST-1368DR,5468,7631,14981,0.166,551
2021-05-10T13:48:45,42.805,6.029,CST-1368DR,5468,7631,14982,0.166,551
2021-05-10T13:51:47,42.805,6.029,CST-1368DR,5468,7631,14982,0.166,551
2021-05-10T13:54:49,42.805,6.029,CST-1368DR,5468,7632,14983,0.166,551
2021-05-10T13:57:50,42.805,6.029,CST-1368DR,5468,7632,14983,0.166,551
2021-05-10T14:00:52,42.805,6.029,CST-1368DR,5468,7632,14984,0.165,551
2021-05-10T14:03:53,42.805,6.029,CST-1368DR,5468,7631,14982,0.166,551
2021-05-10T14:06:55,42.805,6.029,CST-1368DR,5468,7632,14983,0.166,551
2021-05-10T14:09:56,42.805,6.029,CST-1368DR,5468,7631,14982,0.166,551
2021-05-10T14:12:58,42.805,6.029,CST-1368DR,5468,7632,14983,0.166,551
2021-05-10T14:16:00,42.805,6.029,CST-1368DR,5468,7631,14981,0.166,551
2021-05-10T14:19:01,42.805,6.029,CST-1368DR,5468,7631,14982,0.166,551
2021-05-10T14:22:03,42.805,6.029,CST-1368DR,5468,7631,14982,0.166,551
2021-05-10T14:25:04,42.805,6.029,CST-1368DR,5468,7632,14983,0.166,550
2021-05-10T14:28:06,42.805,6.029,CST-1368DR,5468,7632,14983,0.166,551
2021-05-10T14:31:07,42.805,6.029,CST-1368DR,5468,7632,14983,0.166,551
2021-05-10T14:34:09,42.805,6.029,CST-1368DR,5468,7631,14982,0.166,551
2021-05-10T14:37:11,42.805,6.029,CST-1368DR,5468,7631,14982,0.166,551
2021-05-10T14:40:12,42.805,6.029,CST-1368DR,5468,7630,14980,0.166,551
2021-05-10T14:43:14,42.805,6.029,CST-1368DR,5468,7632,14984,0.165,551
2021-05-10T14:46:15,42.805,6.029,CST-1368DR,5468,7631,14981,0.166,551
2021-05-10T14:49:17,42.805,6.029,CST-1368DR,5468,7632,14983,0.166,551
2021-05-10T14:52:19,42.805,6.029,CST-1368DR,5468,7632,14983,0.166,551
2021-05-10T14:55:20,42.805,6.029,CST-1368DR,5468,7631,14981,0.166,551
2021-05-10T14:58:22,42.805,6.029,CST-1368DR,5468,7631,14982,0.166,551
2021-05-10T15:01:23,42.805,6.029,CST-1368DR,5468,7631,14981,0.166,551
2021-05-10T15:04:25,42.805,6.029,CST-1368DR,5468,7631,14982,0.166,550
2021-05-10T15:07:26,42.805,6.029,CST-1368DR,5468,7631,14982,0.166,551
2021-05-10T15:10:28,42.805,6.029,CST-1368DR,5468,7630,14980,0.166,551
2021-05-10T15:13:30,42.805,6.029,CST-1368DR,5468,7631,14981,0.166,551
2021-05-10T15:16:31,42.805,6.029,CST-1368DR,5468,7631,14981,0.166,551
2021-05-10T15:19:33,42.805,6.029,CST-1368DR,5468,7631,14981,0.166,551
2021-05-10T15:22:34,42.805,6.029,CST-1368DR,5468,7631,14982,0.166,551
2021-05-10T15:25:36,42.805,6.029,CST-1368DR,5468,7631,14981,0.166,551
2021-05-10T15:28:37,42.805,6.029,CST-1368DR,5468,7631,14981,0.166,551
2021-05-10T15:31:39,42.805,6.029,CST-1368DR,5468,7632,14983,0.166,551
2021-05-10T15:34:41,42.805,6.029,CST-1368DR,5468,7631,14981,0.166,551
2021-05-10T15:37:42,42.805,6.029,CST-1368DR,5468,7631,14982,0.166,551
2021-05-10T15:40:44,42.805,6.029,CST-1368DR,5468,7632,14983,0.166,551
2021-05-10T15:43:45,42.805,6.029,CST-1368DR,5468,7631,14981,0.166,551
2021-05-10T15:46:47,42.805,6.029,CST-1368DR,5468,7631,14981,0.166,551
2021-05-10T15:49:49,42.805,6.029,CST-1368DR,5468,7631,14981,0.166,551
2021-05-10T15:52:50,42.805,6.029,CST-1368DR,5468,7631,14981,0.166,551
2021-05-10T15:55:52,42.805,6.029,CST-1368DR,5468,7631,14982,0.166,551
2021-05-10T15:58:53,42.805,6.029,CST-1368DR,5468,7631,14981,0.166,550
2021-05-10T16:01:55,42.805,6.029,CST-1368DR,5468,7631,14982,0.166,551
2021-05-10T16:04:56,42.805,6.029,CST-1368DR,5468,7632,14983,0.166,551
2021-05-10T16:07:58,42.805,6.029,CST-1368DR,5468,7632,14983,0.166,551
2021-05-10T16:11:00,42.805,6.029,CST-1368DR,5468,7631,14981,0.166,551
2021-05-10T16:14:01,42.805,6.029,CST-1368DR,5468,7630,14980,0.166,551
2021-05-10T16:17:03,42.805,6.029,CST-1368DR,5468,7631,14982,0.166,551
2021-05-10T16:20:04,42.805,6.029,CST-1368DR,5468,7631,14982,0.166,551
2021-05-10T16:23:06,42.805,6.029,CST-1368DR,5468,7631,14981,0.166,551
2021-05-10T16:26:08,42.805,6.029,CST-1368DR,5468,7632,14983,0.166,551
2021-05-10T16:29:09,42.805,6.029,CST-1368DR,5468,7628,14976,0.167,551
2021-05-10T16:32:11,42.805,6.029,CST-1368DR,5468,7629,14978,0.167,551
2021-05-10T16:35:12,42.805,6.029,CST-1368DR,5468,7630,14980,0.166,551
2021-05-10T16:38:14,42.805,6.029,CST-1368DR,5468,7630,14980,0.166,551
2021-05-10T16:41:15,42.805,6.029,CST-1368DR,5468,7631,14981,0.166,551
2021-05-10T16:44:17,42.805,6.029,CST-1368DR,5468,7630,14979,0.167,551
2021-05-10T16:47:19,42.805,6.029,CST-1368DR,5468,7631,14982,0.166,551
2021-05-10T16:50:20,42.805,6.029,CST-1368DR,5468,7631,14981,0.166,551
2021-05-10T16:53:22,42.805,6.029,CST-1368DR,5468,7630,14980,0.166,551